[[{"header":{"parameterUnit":"m.s-1","parameterCategory":2,"la1":30.2991,"la2":30.254,"lo1":-89.0895,"lo2":-89.0444,"dy":0.0017,"dx":0.0017,"nx":28,"ny":28,"refTime":"2025-05-23T09:00:00:Z","depth":"0","parameterNumber":2,"parameterNumberName":"U-component_of_CURRENTS"},"data":[0,0,0,0,0,0,0,0,0,0,0,0,0,0,0,0,0,0,0,0,0,0,0,0,0,0,0,0,0,0,0,0,0,0,0,0,0,0,0,0,0,0,0,0,0,0,0,0,0,0,0,0,0,0,0,0,0,0,0.1906,0.1906,0,0.1902,0.1902,0.1901,0.1903,0.1904,0.1904,0.1905,0.1845,0.1843,0.1841,0,0,0,0,0,0,0,0,0,0,0,0,0,0.1787,0.179,0.1906,0.1906,0.1906,0.1902,0.1902,0.1901,0.1903,0.1904,0.1904,0.1905,0.1846,0.1843,0.1841,0,0,0,0,0,0,0,0,0,0,0,0,0,0.1812,0.179,0.1906,0.191,0.1911,0.1902,0.1902,0.1901,0.1903,0.1904,0.1904,0.1905,0.1847,0.1844,0.1841,0.1806,0,0,0.1831,0.183,0,0,0,0,0,0,0,0,0.1811,0.1816,0.1909,0.191,0.1911,0.1908,0.1838,0.1868,0.1903,0.1901,0.1905,0.1906,0.1863,0.1859,0.1851,0.1803,0.18,0.1831,0.1829,0.1828,0.1827,0,0,0,0,0,0,0,0.1809,0.1816,0.1899,0.191,0.1911,0.1869,0.1874,0.1843,0.1873,0.1901,0.1903,0.1909,0.1863,0.1854,0.1849,0.18,0.1831,0.1828,0.1826,0.1825,0.1784,0.1784,0,0,0,0,0,0,0.1826,0.1815,0.19,0.19,0.1867,0.1872,0.1877,0.1904,0.1875,0.1873,0.1909,0.1909,0.1859,0.1853,0.1847,0.1871,0.1828,0.1825,0.1823,0.1783,0.1784,0.1785,0,0,0,0,0,0,0.1823,0.1834,0.19,0.1859,0.1865,0.1874,0.1904,0.1904,0.1904,0.1882,0.1878,0.191,0.1859,0.1852,0.1838,0.1867,0.1823,0.1821,0.1782,0.1783,0.1784,0.1876,0,0,0,0,0,0,0.182,0.1834,0.185,0.1861,0.1869,0.1905,0.1903,0.1903,0.1908,0.1909,0.1881,0.1877,0.1859,0.1843,0.1835,0.1862,0.1818,0.1781,0.1783,0.1784,0.1872,0.188,0.1887,0,0,0,0,0,0.1816,0.1838,0.1852,0.1861,0.1895,0.1906,0.1905,0.1909,0.1908,0.191,0.1898,0.1878,0.1847,0.1841,0.1831,0.1858,0.178,0.1782,0.1784,0.1869,0.1879,0.1887,0,0,0,0,0,0,0.1792,0.1842,0.1856,0.1892,0.1904,0.1908,0.1911,0.1911,0.1901,0.1903,0.1879,0.1873,0.1874,0.1846,0.184,0.185,0.1813,0.1813,0.1881,0.189,0.1897,0.194,0.1816,0,0,0,0,0,0.1798,0.1829,0.1861,0.1887,0.1899,0.1904,0.1906,0.1912,0.191,0.1907,0.1892,0.1877,0.1871,0.1865,0.1847,0.1842,0.1897,0.1855,0.1863,0.1869,0.1897,0.2,0.2021,0.179,0.179,0.179,0,0,0.1792,0.1825,0.1841,0.1883,0.1893,0.1921,0.1907,0.1919,0.1941,0.1899,0.1915,0.1897,0.1874,0.1882,0.1881,0.1865,0.197,0.1871,0.1878,0.1902,0.2005,0.2028,0.2048,0.1792,0.1791,0.1791,0,0,0.18,0.1833,0.1864,0.1885,0.1914,0.1923,0.1932,0.1945,0.1952,0.196,0.1947,0.1955,0.1925,0.1936,0.1932,0.1966,0.2004,0.1949,0.2026,0.2126,0.2147,0.2166,0.2304,0.2334,0.1957,0.1957,0.1957,0,0.1787,0.1849,0.1867,0.1905,0.193,0.1933,0.1969,0.1975,0.198,0.2,0.1978,0.1994,0.1962,0.2009,0.2022,0.1988,0.2066,0.1995,0.2142,0.2161,0.2179,0.2315,0.2348,0.1962,0.1961,0.1961,0.196,0,0.1829,0.1876,0.1893,0.1956,0.1977,0.2004,0.2032,0.205,0.2057,0.2072,0.2113,0.2089,0.2112,0.2096,0.2067,0.2171,0.2195,0.2141,0.213,0.2209,0.2346,0.2379,0.1968,0.1967,0.1965,0.1964,0,0,0.1807,0.1905,0.1912,0.1953,0.2011,0.2029,0.2081,0.2133,0.2179,0.2188,0.2261,0.2249,0.2255,0.2252,0.2227,0.23,0.2489,0.2283,0.2286,0.2442,0.2766,0.2787,0.2825,0.2471,0.2476,0.2481,0.2826,0,0.1833,0.1916,0.196,0.2029,0.2075,0.2112,0.2161,0.2206,0.224,0.2305,0.2322,0.236,0.231,0.2325,0.2402,0.2447,0.2573,0.2404,0.2646,0.2655,0.2681,0.2862,0.2751,0.3049,0.2857,0.2863,0.2867,0,0.1864,0.192,0.1997,0.2089,0.2112,0.2148,0.224,0.2285,0.2378,0.2411,0.2482,0.2493,0.2596,0.253,0.2741,0.2641,0.2735,0.2782,0.2795,0.2807,0.2736,0.2928,0.3115,0.3023,0.2917,0.2913,0.2909,0,0.1845,0.1944,0.2007,0.2038,0.2139,0.2177,0.2225,0.2314,0.2359,0.2485,0.2542,0.2663,0.2729,0.2856,0.2949,0.287,0.3203,0.3097,0.3233,0.3236,0.3186,0.3176,0.3328,0.3309,0.3308,0.3307,0.3306,0,0.1862,0.191,0.1999,0.2034,0.2097,0.2172,0.2245,0.2315,0.2423,0.251,0.2591,0.2692,0.2815,0.2986,0.3062,0.3283,0.3316,0.3322,0.3346,0.3216,0.3205,0.315,0.3052,0.332,0.3317,0.3314,0.3312,0,0.1832,0.1898,0.1964,0.2064,0.209,0.2128,0.2223,0.2287,0.2399,0.2525,0.257,0.2762,0.2999,0.3148,0.3388,0.3441,0.3539,0.369,0.3553,0.3554,0.3535,0.3444,0.3524,0.3427,0.391,0.3913,0.3915,0,0.1827,0.1863,0.1953,0.1983,0.2023,0.2087,0.2141,0.2252,0.2333,0.2565,0.2641,0.2899,0.3077,0.3465,0.362,0.386,0.3687,0.3898,0.3706,0.3599,0.3516,0.3318,0.3212,0.3702,0.3703,0.3703,0.3704,0,0.1809,0.1836,0.1887,0.1949,0.1997,0.2048,0.2142,0.219,0.2363,0.2484,0.2697,0.2853,0.3247,0.3455,0.3782,0.3885,0.3689,0.3914,0.3834,0.3426,0.3192,0.3084,0.3432,0.3707,0.3707,0.3706,0.3706,0.3706,0.178,0.1797,0.1865,0.1911,0.196,0.2011,0.2038,0.2164,0.2278,0.2471,0.2667,0.2887,0.3236,0.366,0.3759,0.3859,0.3757,0.3783,0.3715,0.3551,0.3344,0.3731,0.3986,0.3987,0.3988,0.3989,0.399,0,0.1753,0.1786,0.1831,0.1883,0.1905,0.1953,0.2045,0.2078,0.2192,0.2416,0.2589,0.2924,0.3194,0.3453,0.3702,0.366,0.3469,0.359,0.3259,0.3186,0.3598,0.347,0.3584,0.3584,0.3585,0.3585,0.3585,0.3585,0.1748,0.1779,0.1802,0.1819,0.1847,0.1863,0.1893,0.1963,0.2099,0.23,0.2487,0.2684,0.3058,0.3405,0.3471,0.342,0.3146,0.3071,0.3029,0.328,0.3289,0.3298,0.3158,0.3205,0.3204,0.2495,0.2489,0.2485]},{"header":{"parameterUnit":"m.s-1","parameterCategory":2,"la1":30.2991,"la2":30.254,"lo1":-89.0895,"lo2":-89.0444,"dy":0.0017,"dx":0.0017,"nx":28,"ny":28,"refTime":"2025-05-23T09:00:00:Z","depth":"0","parameterNumber":3,"parameterNumberName":"V-component_of_CURRENTS"},"data":[0,0,0,0,0,0,0,0,0,0,0,0,0,0,0,0,0,0,0,0,0,0,0,0,0,0,0,0,0,0,0,0,0,0,0,0,0,0,0,0,0,0,0,0,0,0,0,0,0,0,0,0,0,0,0,0,0,0,0.011,0.0109,0,0.0009,0.0007,0.0006,-0.0036,-0.0036,-0.0036,-0.0035,-0.0155,-0.0158,-0.0162,0,0,0,0,0,0,0,0,0,0,0,0,0,0.0197,0.0196,0.011,0.0109,0.0108,0.0009,0.0007,0.0006,-0.0036,-0.0036,-0.0036,-0.0035,-0.0153,-0.0158,-0.0162,0,0,0,0,0,0,0,0,0,0,0,0,0,0.0132,0.0195,0.011,0.0076,0.0072,0.0009,0.0007,0.0005,-0.0036,-0.0036,-0.0035,-0.0035,-0.0152,-0.0157,-0.0162,-0.0206,0,0,-0.0179,-0.0181,0,0,0,0,0,0,0,0,0.0136,0.0129,0.0082,0.0079,0.0074,0.0001,-0.0006,-0.0066,-0.0037,0.0003,-0.0035,-0.0035,-0.0104,-0.0113,-0.0135,-0.0212,-0.0217,-0.0179,-0.0182,-0.0185,-0.0186,0,0,0,0,0,0,0,0.0141,0.0133,0.0068,0.0081,0.0076,0.0042,0.0034,-0.0018,-0.0054,-0.0,-0.0003,-0.0012,-0.0106,-0.013,-0.0138,-0.0219,-0.0179,-0.0184,-0.0187,-0.0189,-0.0326,-0.0326,0,0,0,0,0,0,0.016,0.0137,0.0071,0.0065,0.0109,0.0041,0.0031,0.0022,-0.0053,-0.0063,-0.0012,-0.0014,-0.0121,-0.0132,-0.0143,-0.017,-0.0184,-0.0189,-0.0192,-0.0325,-0.0326,-0.0326,0,0,0,0,0,0,0.0162,0.0155,0.0076,0.01,0.0088,0.0039,0.0029,0.002,-0.0004,-0.0061,-0.0072,-0.0027,-0.0121,-0.0135,-0.0186,-0.0176,-0.0192,-0.0197,-0.0325,-0.0325,-0.0326,-0.0243,0,0,0,0,0,0,0.0165,0.0156,0.0153,0.0102,0.0088,0.0039,0.0028,0.0018,-0.001,-0.0012,-0.0078,-0.0088,-0.0122,-0.0178,-0.0191,-0.0183,-0.0201,-0.0324,-0.0325,-0.0326,-0.0245,-0.0241,-0.0237,0,0,0,0,0,0.0168,0.0165,0.0154,0.0146,0.0087,0.0039,0.0028,-0.0007,-0.001,-0.0026,-0.0064,-0.0086,-0.0193,-0.0183,-0.0198,-0.0192,-0.0324,-0.0325,-0.0326,-0.0247,-0.0242,-0.0237,0,0,0,0,0,0,0.0205,0.0159,0.0146,0.013,0.0089,0.0032,0.0018,-0.0007,-0.0051,-0.005,-0.0099,-0.0114,-0.0152,-0.0192,-0.018,-0.0236,-0.026,-0.0264,-0.0195,-0.019,-0.0186,-0.0136,-0.0205,0,0,0,0,0,0.0212,0.0194,0.0146,0.0132,0.0117,0.0067,0.0044,0.0019,-0.0025,-0.0044,-0.009,-0.0135,-0.0171,-0.0195,-0.0241,-0.0278,-0.0271,-0.0284,-0.028,-0.0276,-0.0248,-0.0231,-0.0221,-0.033,-0.033,-0.033,0,0,0.0225,0.0195,0.0187,0.0138,0.0107,0.0088,0.0054,0.0021,0.0012,-0.0051,-0.0081,-0.0128,-0.018,-0.0213,-0.0234,-0.0243,-0.0244,-0.0277,-0.0273,-0.0246,-0.023,-0.0219,-0.0209,-0.033,-0.033,-0.033,0,0,0.0242,0.0215,0.0208,0.0177,0.013,0.0099,0.0092,0.0034,0.0017,-0.0028,-0.006,-0.009,-0.0174,-0.0187,-0.0207,-0.0212,-0.0225,-0.0244,-0.0178,-0.0163,-0.0152,-0.0143,-0.0117,-0.0106,-0.0238,-0.0238,-0.0238,0,0.0264,0.0249,0.0198,0.0184,0.0174,0.0111,0.0112,0.0077,0.0009,0.0015,-0.0027,-0.0091,-0.0148,-0.014,-0.0151,-0.0196,-0.0191,-0.0187,-0.0152,-0.0142,-0.0134,-0.011,-0.0099,-0.0234,-0.0235,-0.0235,-0.0235,0,0.0274,0.0265,0.026,0.0228,0.0203,0.0191,0.0146,0.0124,0.0092,0.0068,0.0056,-0.0015,-0.0039,-0.0074,-0.0121,-0.0091,-0.0107,-0.0146,-0.015,-0.0117,-0.0095,-0.0085,-0.0229,-0.023,-0.0231,-0.0232,0,0,0.0335,0.0282,0.0284,0.029,0.0234,0.0223,0.0211,0.0202,0.0231,0.0157,0.0201,0.0118,0.0093,0.0069,0.0015,0.0017,0.0058,-0.0042,-0.0043,0.001,0.0105,0.0085,0.0094,0.0024,0.0026,0.0028,0.01,0,0.0372,0.0371,0.033,0.0345,0.0351,0.0305,0.031,0.0292,0.0271,0.0288,0.0245,0.0245,0.0145,0.0142,0.0127,0.0075,0.0088,0.0043,0.0043,0.0044,0.0043,0.0106,0.0052,0.0111,0.011,0.0111,0.0112,0,0.0412,0.0407,0.0426,0.0433,0.0435,0.043,0.0459,0.0455,0.0458,0.045,0.0447,0.0404,0.0397,0.0304,0.0271,0.0245,0.0188,0.0146,0.0147,0.0114,0.0044,0.0073,0.0129,-0.0106,0.0128,0.0127,0.0126,0,0.0502,0.0491,0.0516,0.0511,0.0493,0.051,0.0509,0.0511,0.0542,0.0565,0.0602,0.057,0.0579,0.0501,0.0387,0.0334,0.0364,0.0281,0.0225,0.0223,0.0173,0.0163,0.0027,0.0286,0.0286,0.0285,0.0285,0,0.057,0.0596,0.0558,0.0575,0.0626,0.0589,0.0654,0.0655,0.0686,0.0761,0.0697,0.0761,0.0628,0.0609,0.0476,0.04,0.0437,0.0272,0.0251,0.0196,0.0188,-0.0024,-0.0135,0.0288,0.0288,0.0287,0.0287,0,0.0656,0.063,0.0665,0.066,0.0664,0.0701,0.073,0.0787,0.0805,0.0907,0.0925,0.0928,0.0908,0.0779,0.0685,0.0542,0.0338,0.0414,0.0365,0.0336,0.003,-0.0072,-0.0133,-0.0215,0.0365,0.0365,0.0365,0,0.0698,0.0719,0.0734,0.0759,0.0753,0.0792,0.0833,0.0846,0.0911,0.1018,0.109,0.1111,0.1147,0.1009,0.0767,0.0583,0.038,0.04,0.0279,0.0039,-0.0091,-0.0148,-0.0218,0.0246,0.0245,0.0244,0.0243,0,0.0782,0.078,0.0801,0.0855,0.0894,0.0946,0.1003,0.107,0.1124,0.1219,0.1353,0.1398,0.1271,0.1086,0.0825,0.0644,0.0227,0.0379,0.0141,-0.0169,-0.0246,-0.0345,0.0174,0.0237,0.0237,0.0238,0.0238,0.0239,0.0843,0.0874,0.0903,0.0951,0.1007,0.1096,0.1165,0.1248,0.1373,0.153,0.1552,0.1654,0.1338,0.0976,0.0709,0.0146,0.0197,-0.0056,-0.0147,-0.0171,-0.0298,0.022,0.0242,0.0243,0.0243,0.0244,0.0244,0,0.091,0.0937,0.0999,0.1061,0.1143,0.1155,0.1279,0.1367,0.1531,0.1678,0.1789,0.1681,0.1263,0.0804,0.0097,-0.031,-0.0463,-0.0549,-0.0687,-0.0723,-0.0266,-0.0327,-0.044,-0.0439,-0.0439,-0.0439,-0.0439,-0.0438,0.0947,0.1006,0.1029,0.116,0.1219,0.1343,0.1424,0.1566,0.1688,0.187,0.1926,0.1939,0.1544,0.0268,-0.0633,-0.0849,-0.1141,-0.118,-0.128,-0.106,-0.1024,-0.0989,-0.1077,-0.1344,-0.1346,-0.1726,-0.173,-0.1734]}],[{"header":{"parameterUnit":"m.s-1","parameterCategory":2,"la1":30.2991,"la2":30.254,"lo1":-89.0895,"lo2":-89.0444,"dy":0.0017,"dx":0.0017,"nx":28,"ny":28,"refTime":"2025-05-23T09:00:00:Z","depth":"2","parameterNumber":2,"parameterNumberName":"U-component_of_CURRENTS"},"data":[0,0,0,0,0,0,0,0,0,0,0,0,0,0,0,0,0,0,0,0,0,0,0,0,0,0,0,0,0,0,0,0,0,0,0,0,0,0,0,0,0,0,0,0,0,0,0,0,0,0,0,0,0,0,0,0,0,0,0.0618,0.0619,0,0.0695,0.0695,0.0696,0.0713,0.0713,0.0712,0.0712,0.078,0.0782,0.0784,0,0,0,0,0,0,0,0,0,0,0,0,0,0.0524,0.0525,0.0618,0.0619,0.062,0.0694,0.0695,0.0696,0.0713,0.0713,0.0712,0.0712,0.0779,0.0782,0.0784,0,0,0,0,0,0,0,0,0,0,0,0,0,0.0578,0.0526,0.0618,0.0639,0.0642,0.0694,0.0695,0.0697,0.0713,0.0713,0.0712,0.0711,0.0778,0.0781,0.0785,0.0817,0,0,0.0795,0.0796,0,0,0,0,0,0,0,0,0.0575,0.0581,0.0635,0.0638,0.0641,0.0695,0.0687,0.0737,0.0713,0.0685,0.0712,0.0711,0.0752,0.0757,0.0771,0.0821,0.0823,0.0795,0.0797,0.0798,0.0799,0,0,0,0,0,0,0,0.0571,0.0578,0.0647,0.0636,0.064,0.0657,0.0663,0.0697,0.072,0.0687,0.0689,0.07,0.0753,0.0768,0.0773,0.0824,0.0795,0.0798,0.08,0.0801,0.095,0.0952,0,0,0,0,0,0,0.0563,0.0574,0.0645,0.065,0.0607,0.0659,0.0666,0.0677,0.0719,0.0726,0.07,0.07,0.0763,0.0769,0.0775,0.0857,0.0798,0.0801,0.0803,0.0948,0.0951,0.0953,0,0,0,0,0,0,0.0561,0.0569,0.0642,0.0615,0.0625,0.0661,0.0673,0.0679,0.0703,0.073,0.0735,0.072,0.0762,0.0771,0.0823,0.0858,0.0803,0.0806,0.0946,0.0949,0.0952,0.0995,0,0,0,0,0,0,0.0558,0.0567,0.0575,0.0614,0.0627,0.0679,0.0674,0.0681,0.0711,0.0712,0.0749,0.0754,0.0763,0.0818,0.0826,0.0862,0.0808,0.0943,0.0947,0.0951,0.0991,0.0999,0.1006,0,0,0,0,0,0.0554,0.0567,0.0575,0.0583,0.0635,0.068,0.0688,0.071,0.0712,0.0728,0.076,0.0753,0.0847,0.0823,0.0832,0.0869,0.0942,0.0946,0.095,0.0988,0.0997,0.1006,0,0,0,0,0,0,0.0532,0.0572,0.058,0.0605,0.0642,0.0683,0.0702,0.0719,0.0757,0.076,0.078,0.0788,0.0847,0.0856,0.0828,0.0924,0.0893,0.09,0.0919,0.0928,0.0935,0.0944,0.0811,0,0,0,0,0,0.0531,0.0549,0.0592,0.0612,0.0632,0.0669,0.0691,0.071,0.0748,0.0763,0.0792,0.0828,0.0873,0.0896,0.0931,0.0985,0.1018,0.1015,0.1023,0.1029,0.1044,0.1123,0.1139,0.0967,0.0967,0.0967,0,0,0.0526,0.0552,0.0561,0.0609,0.0638,0.0677,0.0681,0.0721,0.0758,0.0766,0.0826,0.0856,0.0894,0.0955,0.0982,0.0965,0.1098,0.1035,0.1039,0.1051,0.113,0.1147,0.1161,0.097,0.097,0.0969,0,0,0.0531,0.0553,0.0572,0.0607,0.0657,0.0686,0.0701,0.0752,0.078,0.0841,0.0861,0.0915,0.0975,0.1015,0.1042,0.1114,0.1135,0.1124,0.1171,0.1248,0.1263,0.1276,0.1349,0.1368,0.1128,0.1128,0.1128,0,0.0526,0.0562,0.0586,0.0621,0.066,0.0693,0.0736,0.0771,0.0834,0.0877,0.0863,0.0989,0.1007,0.1104,0.1125,0.1131,0.1179,0.113,0.1258,0.1271,0.1284,0.1356,0.1377,0.1131,0.113,0.113,0.113,0,0.055,0.0585,0.0605,0.066,0.07,0.0745,0.08,0.0846,0.0883,0.0927,0.1026,0.1064,0.1142,0.1155,0.1161,0.1271,0.1277,0.1256,0.1232,0.1304,0.1375,0.1396,0.1134,0.1133,0.1133,0.1132,0,0,0.0538,0.0607,0.0617,0.0659,0.0731,0.0774,0.0841,0.0928,0.0992,0.1046,0.1142,0.121,0.1239,0.1272,0.1294,0.1353,0.1475,0.1347,0.1349,0.1414,0.1661,0.1614,0.1632,0.1482,0.1485,0.1488,0.1676,0,0.056,0.0625,0.0659,0.0741,0.0791,0.0849,0.0916,0.0995,0.1061,0.1156,0.1217,0.1307,0.1282,0.1332,0.139,0.1459,0.1533,0.1427,0.1586,0.1591,0.1536,0.1656,0.1509,0.166,0.1697,0.17,0.1703,0,0.0589,0.0633,0.0706,0.0809,0.0837,0.0889,0.102,0.1083,0.1208,0.1263,0.1358,0.1407,0.1521,0.1475,0.164,0.1579,0.1632,0.167,0.1678,0.1634,0.1583,0.1593,0.1697,0.1738,0.1735,0.1733,0.173,0,0.0595,0.068,0.0742,0.0776,0.0882,0.094,0.1005,0.1123,0.1206,0.1341,0.1422,0.1539,0.1628,0.1706,0.1781,0.1731,0.1955,0.1891,0.1906,0.1903,0.1809,0.1791,0.2021,0.2021,0.202,0.202,0.2019,0,0.0625,0.0683,0.0751,0.0792,0.0887,0.0956,0.1074,0.1153,0.1288,0.1402,0.1481,0.16,0.1694,0.182,0.1853,0.1962,0.2024,0.1953,0.1963,0.182,0.1802,0.1879,0.186,0.2027,0.2025,0.2024,0.2023,0,0.0637,0.0678,0.076,0.0859,0.0896,0.0967,0.111,0.1192,0.1315,0.147,0.1524,0.1698,0.1859,0.1946,0.2097,0.2071,0.2159,0.2178,0.2003,0.1987,0.2035,0.2016,0.2219,0.222,0.222,0.222,0.222,0,0.0654,0.0687,0.0791,0.0837,0.0886,0.0991,0.1063,0.1195,0.1285,0.1529,0.1605,0.1817,0.1936,0.214,0.2155,0.2232,0.225,0.2128,0.1987,0.2075,0.2064,0.2044,0.2026,0.1894,0.1891,0.1889,0.1887,0,0.0678,0.0707,0.0765,0.0846,0.0922,0.1012,0.1124,0.1198,0.1363,0.1496,0.1699,0.1817,0.2013,0.2039,0.2125,0.213,0.209,0.2085,0.2279,0.1843,0.1776,0.1761,0.1753,0.1869,0.1871,0.1872,0.1873,0.1874,0.0692,0.0723,0.0782,0.0861,0.094,0.102,0.1076,0.1189,0.1323,0.149,0.1657,0.1788,0.1858,0.1915,0.1917,0.1931,0.2031,0.1943,0.1946,0.1953,0.1859,0.1793,0.1873,0.1875,0.1876,0.1878,0.1879,0,0.0696,0.0734,0.0794,0.0878,0.0933,0.1001,0.1106,0.1139,0.1249,0.1415,0.1554,0.1521,0.1579,0.1685,0.1671,0.1671,0.1613,0.1628,0.1544,0.1566,0.1584,0.1466,0.138,0.1378,0.1376,0.1374,0,0,0.0708,0.0742,0.076,0.084,0.0909,0.0969,0.1016,0.1068,0.1164,0.1237,0.1322,0.1466,0.1611,0.1444,0.145,0.143,0.1473,0.1381,0.1787,0.1708,0.1723,0.1782,0.1628,0,0,0,0,0]},{"header":{"parameterUnit":"m.s-1","parameterCategory":2,"la1":30.2991,"la2":30.254,"lo1":-89.0895,"lo2":-89.0444,"dy":0.0017,"dx":0.0017,"nx":28,"ny":28,"refTime":"2025-05-23T09:00:00:Z","depth":"2","parameterNumber":3,"parameterNumberName":"V-component_of_CURRENTS"},"data":[0,0,0,0,0,0,0,0,0,0,0,0,0,0,0,0,0,0,0,0,0,0,0,0,0,0,0,0,0,0,0,0,0,0,0,0,0,0,0,0,0,0,0,0,0,0,0,0,0,0,0,0,0,0,0,0,0,0,-0.0048,-0.0048,0,-0.0032,-0.0032,-0.0031,-0.0033,-0.0033,-0.0034,-0.0034,-0.0076,-0.0077,-0.0078,0,0,0,0,0,0,0,0,0,0,0,0,0,-0.0087,-0.0086,-0.0048,-0.0048,-0.0048,-0.0032,-0.0032,-0.0031,-0.0033,-0.0033,-0.0034,-0.0034,-0.0076,-0.0077,-0.0078,0,0,0,0,0,0,0,0,0,0,0,0,0,-0.007,-0.0086,-0.0048,-0.0048,-0.0047,-0.0032,-0.0032,-0.0031,-0.0033,-0.0033,-0.0034,-0.0034,-0.0075,-0.0077,-0.0078,-0.0075,0,0,-0.0081,-0.0082,0,0,0,0,0,0,0,0,-0.0071,-0.0068,-0.0048,-0.0048,-0.0047,-0.0036,-0.0061,-0.0049,-0.0033,-0.0038,-0.0034,-0.0035,-0.0068,-0.007,-0.0064,-0.0077,-0.0079,-0.0082,-0.0082,-0.0083,-0.0083,0,0,0,0,0,0,0,-0.0072,-0.0069,-0.0041,-0.0048,-0.0047,-0.005,-0.0048,-0.0058,-0.0051,-0.0037,-0.0037,-0.0037,-0.0068,-0.0062,-0.0065,-0.008,-0.0082,-0.0083,-0.0083,-0.0084,-0.0147,-0.0148,0,0,0,0,0,0,-0.0075,-0.007,-0.0042,-0.0041,-0.0062,-0.0049,-0.0047,-0.0038,-0.0049,-0.0051,-0.0036,-0.0037,-0.006,-0.0063,-0.0067,-0.0107,-0.0083,-0.0084,-0.0085,-0.0147,-0.0148,-0.0149,0,0,0,0,0,0,-0.0075,-0.0072,-0.0042,-0.0056,-0.0053,-0.0048,-0.0038,-0.0038,-0.0036,-0.0048,-0.0051,-0.0036,-0.0061,-0.0065,-0.0081,-0.0107,-0.0084,-0.0086,-0.0145,-0.0147,-0.0148,-0.016,0,0,0,0,0,0,-0.0076,-0.0072,-0.0064,-0.0056,-0.0052,-0.0028,-0.0038,-0.0037,-0.0035,-0.0036,-0.0049,-0.0053,-0.0061,-0.0079,-0.0082,-0.0108,-0.0087,-0.0144,-0.0146,-0.0148,-0.0158,-0.0162,-0.0164,0,0,0,0,0,-0.0078,-0.0059,-0.0064,-0.0061,-0.0042,-0.0028,-0.0025,-0.0024,-0.0035,-0.0026,-0.0045,-0.0053,-0.0094,-0.008,-0.0084,-0.0111,-0.0143,-0.0146,-0.0148,-0.0157,-0.0161,-0.0164,0,0,0,0,0,0,-0.0069,-0.0057,-0.0062,-0.0041,-0.0036,-0.0028,-0.0019,-0.0025,-0.003,-0.0037,-0.0054,-0.0059,-0.0087,-0.0094,-0.0079,-0.0136,-0.0125,-0.0127,-0.0131,-0.0134,-0.0137,-0.0133,-0.0088,0,0,0,0,0,-0.0065,-0.005,-0.0044,-0.0029,-0.0025,-0.0026,-0.0021,-0.0023,-0.0027,-0.003,-0.0046,-0.007,-0.0097,-0.011,-0.0127,-0.0149,-0.0163,-0.0174,-0.0177,-0.0179,-0.0179,-0.0225,-0.0232,-0.0156,-0.0156,-0.0156,0,0,-0.0059,-0.005,-0.0043,-0.0026,-0.0023,-0.0011,-0.0023,-0.0014,-0.0017,-0.0035,-0.0048,-0.0076,-0.0104,-0.0133,-0.0148,-0.0144,-0.0207,-0.0182,-0.0184,-0.0183,-0.0228,-0.0235,-0.0242,-0.0157,-0.0157,-0.0157,0,0,-0.0035,-0.0031,-0.001,-0.0003,0.0003,0.0001,0.0001,0.0001,-0.0012,-0.0028,-0.0053,-0.0093,-0.0121,-0.0153,-0.0173,-0.0202,-0.0219,-0.0216,-0.0231,-0.0275,-0.0282,-0.0288,-0.0309,-0.0317,-0.0221,-0.0221,-0.0221,0,-0.003,-0.0003,-0.0003,0.0019,0.0022,0.0005,0.002,0.0009,-0.0002,-0.0023,-0.0034,-0.0107,-0.0133,-0.0183,-0.0203,-0.0209,-0.023,-0.0213,-0.0279,-0.0285,-0.0291,-0.0311,-0.032,-0.0222,-0.0222,-0.0222,-0.0222,0,0.0008,0.0027,0.0041,0.0057,0.0061,0.0072,0.0055,0.0041,0.0011,-0.0013,-0.007,-0.0114,-0.0161,-0.0187,-0.0208,-0.0271,-0.027,-0.0274,-0.0267,-0.0299,-0.0319,-0.0327,-0.0223,-0.0223,-0.0222,-0.0222,0,0,0.0013,0.0059,0.0061,0.0074,0.0079,0.0085,0.0072,0.0049,0.0034,-0.0017,-0.0049,-0.0131,-0.0171,-0.0197,-0.0238,-0.0287,-0.0353,-0.0305,-0.0307,-0.0321,-0.0441,-0.0447,-0.0457,-0.0375,-0.0376,-0.0378,-0.0436,0,0.0037,0.0088,0.0097,0.0123,0.0143,0.0121,0.0113,0.0084,0.0047,0.0013,-0.007,-0.0113,-0.017,-0.02,-0.0265,-0.032,-0.0378,-0.0336,-0.0413,-0.0414,-0.0412,-0.0468,-0.0432,-0.0482,-0.0444,-0.0446,-0.0447,0,0.0059,0.0093,0.0132,0.0156,0.016,0.0161,0.0136,0.0127,0.007,0.0038,-0.0035,-0.0082,-0.0173,-0.021,-0.0343,-0.0316,-0.039,-0.0437,-0.044,-0.0447,-0.0437,-0.0447,-0.0499,-0.0461,-0.046,-0.0459,-0.0458,0,0.0056,0.0107,0.0136,0.0147,0.0173,0.0163,0.0156,0.012,0.012,0.0047,0.0043,-0.0073,-0.0108,-0.0233,-0.0338,-0.0351,-0.0462,-0.0485,-0.0561,-0.056,-0.0545,-0.0541,-0.0593,-0.0592,-0.0592,-0.0592,-0.0592,0,0.0072,0.0092,0.0135,0.0151,0.0173,0.017,0.0171,0.015,0.0134,0.0149,0.0048,0.0055,-0.0118,-0.0191,-0.032,-0.0456,-0.0454,-0.0576,-0.0588,-0.0547,-0.0543,-0.0534,-0.0526,-0.0594,-0.0594,-0.0593,-0.0593,0,0.0063,0.0094,0.0134,0.0168,0.0175,0.0182,0.0205,0.0219,0.0189,0.0211,0.0196,0.0145,0.005,-0.0107,-0.0273,-0.0407,-0.0547,-0.0594,-0.0524,-0.0529,-0.0624,-0.0616,-0.071,-0.0711,-0.0711,-0.0712,-0.0713,0,0.0069,0.009,0.0147,0.018,0.0193,0.021,0.0238,0.0233,0.027,0.0288,0.0321,0.025,0.0208,-0.0035,-0.0261,-0.0495,-0.052,-0.062,-0.066,-0.064,-0.0642,-0.0632,-0.0624,-0.0638,-0.0638,-0.0638,-0.0638,0,0.0083,0.0097,0.0138,0.0208,0.0246,0.0304,0.0344,0.039,0.041,0.0441,0.0507,0.0474,0.0255,0.0041,-0.0282,-0.0433,-0.059,-0.0628,-0.063,-0.0613,-0.0578,-0.0577,-0.0571,-0.0638,-0.0638,-0.0638,-0.0638,-0.0638,0.0089,0.0123,0.0183,0.0244,0.0307,0.0401,0.0455,0.0525,0.0602,0.0632,0.0616,0.0558,0.0306,-0.0103,-0.0325,-0.0552,-0.0584,-0.0691,-0.0689,-0.0688,-0.0668,-0.0637,-0.0703,-0.0703,-0.0703,-0.0704,-0.0704,0,0.0108,0.0156,0.0222,0.0312,0.0394,0.0424,0.0542,0.0595,0.0705,0.0705,0.0696,0.0462,0.0205,-0.0033,-0.0375,-0.0622,-0.0627,-0.0674,-0.0631,-0.0632,-0.0632,-0.0608,-0.0627,-0.0627,-0.0627,-0.0627,0,0,0.0122,0.0186,0.0226,0.0367,0.0442,0.0566,0.0645,0.0722,0.0761,0.0747,0.0702,0.0522,0.0265,0.0023,-0.0274,-0.043,-0.0473,-0.046,-0.0506,-0.0422,-0.0419,-0.0635,-0.0597,0,0,0,0,0]}],[{"header":{"parameterUnit":"m.s-1","parameterCategory":2,"la1":30.2991,"la2":30.254,"lo1":-89.0895,"lo2":-89.0444,"dy":0.0017,"dx":0.0017,"nx":28,"ny":28,"refTime":"2025-05-23T09:00:00:Z","depth":"4","parameterNumber":2,"parameterNumberName":"U-component_of_CURRENTS"},"data":[0,0,0,0,0,0,0,0,0,0,0,0,0,0,0,0,0,0,0,0,0,0,0,0,0,0,0,0,0,0,0,0,0,0,0,0,0,0,0,0,0,0,0,0,0,0,0,0,0,0,0,0,0,0,0,0,0,0,0.0571,0.0571,0,0.0582,0.0582,0.0583,0.0633,0.0633,0.0634,0.0635,0.0668,0.0668,0.0668,0,0,0,0,0,0,0,0,0,0,0,0,0,0.0564,0.0564,0.0571,0.0571,0.0571,0.0582,0.0582,0.0583,0.0632,0.0633,0.0634,0.0635,0.0668,0.0668,0.0668,0,0,0,0,0,0,0,0,0,0,0,0,0,0.0573,0.0565,0.0572,0.0595,0.0597,0.0582,0.0582,0.0583,0.0632,0.0633,0.0635,0.0636,0.0668,0.0668,0.0668,0.0643,0,0,0.0668,0.0668,0,0,0,0,0,0,0,0,0.0573,0.0574,0.0591,0.0593,0.0595,0.0604,0.0591,0.0603,0.0632,0.0622,0.0635,0.0637,0.0645,0.0647,0.0651,0.0644,0.0646,0.0668,0.0668,0.0669,0.0669,0,0,0,0,0,0,0,0.0572,0.0574,0.0579,0.0591,0.0593,0.0594,0.0597,0.0594,0.063,0.0623,0.0626,0.0621,0.0647,0.0651,0.0652,0.0646,0.0668,0.0668,0.0669,0.0669,0.0692,0.0693,0,0,0,0,0,0,0.0564,0.0573,0.0579,0.0579,0.0583,0.0593,0.0597,0.0603,0.0629,0.0633,0.062,0.0623,0.065,0.0652,0.0654,0.07,0.0669,0.0669,0.0669,0.0691,0.0692,0.0693,0,0,0,0,0,0,0.0564,0.0565,0.0578,0.0573,0.0574,0.0591,0.0598,0.0602,0.0636,0.0626,0.0632,0.0653,0.0651,0.0653,0.0679,0.0699,0.0669,0.0669,0.0691,0.0692,0.0692,0.0744,0,0,0,0,0,0,0.0564,0.0565,0.0578,0.0573,0.0574,0.0595,0.0596,0.0601,0.0627,0.0633,0.0655,0.0657,0.0652,0.0679,0.0679,0.0698,0.0669,0.069,0.0691,0.0692,0.0741,0.0746,0.0751,0,0,0,0,0,0.0564,0.0576,0.0579,0.058,0.0588,0.0596,0.0598,0.0615,0.0628,0.065,0.0664,0.0658,0.0686,0.068,0.068,0.0699,0.069,0.0691,0.0692,0.0739,0.0745,0.075,0,0,0,0,0,0,0.0581,0.0582,0.0585,0.0598,0.0607,0.0604,0.0621,0.063,0.0657,0.067,0.0667,0.0671,0.0699,0.0689,0.0683,0.0708,0.0686,0.0687,0.0722,0.0727,0.0732,0.0734,0.0669,0,0,0,0,0,0.0587,0.0601,0.0598,0.0612,0.0618,0.0625,0.0633,0.0645,0.0658,0.0673,0.0684,0.0692,0.0697,0.0707,0.071,0.0723,0.0712,0.0734,0.0739,0.0743,0.0744,0.0743,0.0748,0.0697,0.0697,0.0697,0,0,0.0593,0.0598,0.0604,0.0617,0.0626,0.0636,0.0636,0.0659,0.0671,0.0669,0.0704,0.0711,0.0704,0.0724,0.0735,0.0724,0.0753,0.0744,0.0748,0.0747,0.0745,0.075,0.0754,0.0698,0.0698,0.0697,0,0,0.0606,0.0623,0.0636,0.0644,0.0659,0.0664,0.0677,0.069,0.0708,0.0732,0.0732,0.0753,0.0765,0.0763,0.0761,0.0788,0.0777,0.0794,0.0821,0.0821,0.0825,0.0828,0.0828,0.0831,0.0796,0.0797,0.0797,0,0.0614,0.063,0.0642,0.0654,0.0663,0.068,0.0695,0.0707,0.0729,0.0742,0.0754,0.0779,0.0778,0.079,0.0805,0.0799,0.08,0.0803,0.0827,0.083,0.0833,0.0832,0.0834,0.0799,0.0799,0.0799,0.0798,0,0.0625,0.0646,0.0658,0.0679,0.0694,0.0714,0.0723,0.0748,0.0773,0.0783,0.0818,0.0821,0.0838,0.084,0.0834,0.0854,0.0849,0.0834,0.0815,0.0841,0.0838,0.084,0.0803,0.0802,0.0801,0.0801,0,0,0.0617,0.0658,0.0663,0.0679,0.0712,0.0722,0.075,0.0775,0.0796,0.0827,0.0856,0.087,0.0888,0.0886,0.0884,0.0885,0.0908,0.0877,0.0876,0.088,0.0916,0.0924,0.0926,0.0905,0.0905,0.0906,0.0908,0,0.0624,0.0655,0.0675,0.0707,0.0723,0.0749,0.0772,0.0798,0.0827,0.0859,0.0873,0.0907,0.0898,0.0924,0.0922,0.0917,0.0915,0.0909,0.0886,0.0885,0.0892,0.0929,0.0907,0.091,0.091,0.091,0.0911,0,0.0618,0.0645,0.0681,0.0724,0.0735,0.0761,0.0806,0.0829,0.0871,0.0897,0.0934,0.0951,0.0977,0.0961,0.0962,0.0966,0.0946,0.0932,0.0931,0.0921,0.0897,0.0875,0.0914,0.0914,0.0913,0.0913,0.0913,0,0.0596,0.0643,0.0678,0.0691,0.0743,0.0771,0.0807,0.085,0.0874,0.0936,0.0965,0.0995,0.1023,0.101,0.1002,0.0988,0.0996,0.0965,0.0945,0.0945,0.0913,0.0909,0.095,0.095,0.095,0.095,0.095,0,0.0585,0.0609,0.0676,0.0691,0.0733,0.0776,0.0824,0.0859,0.0915,0.0949,0.0993,0.1019,0.1039,0.1049,0.1022,0.1008,0.1012,0.096,0.0952,0.0935,0.0933,0.0914,0.091,0.095,0.095,0.095,0.095,0,0.0549,0.0594,0.063,0.07,0.0725,0.0757,0.0832,0.0857,0.0924,0.0969,0.0998,0.1052,0.1085,0.109,0.1079,0.1039,0.1018,0.1002,0.1003,0.0992,0.0958,0.0956,0.0978,0.0978,0.0979,0.0979,0.0979,0,0.0533,0.0551,0.0626,0.0651,0.069,0.0747,0.0782,0.0857,0.0887,0.0977,0.0991,0.1061,0.1089,0.1078,0.1089,0.1067,0.1042,0.1021,0.0973,0.0974,0.0963,0.0961,0.0959,0.098,0.098,0.098,0.098,0,0.0499,0.0532,0.0563,0.062,0.0665,0.0704,0.0768,0.0786,0.0873,0.093,0.098,0.1013,0.1054,0.107,0.108,0.1047,0.1036,0.1024,0.1022,0.0976,0.0976,0.0965,0.0962,0.0981,0.0981,0.0981,0.0981,0,0.0471,0.0483,0.0533,0.0576,0.0628,0.0663,0.0697,0.0751,0.0795,0.09,0.0915,0.0986,0.1049,0.106,0.1057,0.1059,0.1026,0.097,0.0969,0.0968,0.0968,0.0968,0.0973,0,0,0,0,0,0.0442,0.0455,0.0488,0.0537,0.0585,0.062,0.0686,0.0723,0.0804,0.0824,0.0875,0.0918,0.0963,0.0994,0.0991,0.1043,0.102,0.1035,0.0951,0.0988,0.0987,0.099,0,0,0,0,0,0,0.0422,0.0451,0.047,0.0499,0.0526,0.0575,0.0617,0.0669,0.069,0.0775,0.0802,0.0872,0.092,0.0957,0.0975,0.0986,0.0919,0.1083,0.1081,0.0989,0.0988,0.0987,0.0989,0,0,0,0,0]},{"header":{"parameterUnit":"m.s-1","parameterCategory":2,"la1":30.2991,"la2":30.254,"lo1":-89.0895,"lo2":-89.0444,"dy":0.0017,"dx":0.0017,"nx":28,"ny":28,"refTime":"2025-05-23T09:00:00:Z","depth":"4","parameterNumber":3,"parameterNumberName":"V-component_of_CURRENTS"},"data":[0,0,0,0,0,0,0,0,0,0,0,0,0,0,0,0,0,0,0,0,0,0,0,0,0,0,0,0,0,0,0,0,0,0,0,0,0,0,0,0,0,0,0,0,0,0,0,0,0,0,0,0,0,0,0,0,0,0,-0.0122,-0.0122,0,-0.0159,-0.016,-0.016,-0.0229,-0.023,-0.0231,-0.0231,-0.0341,-0.0343,-0.0345,0,0,0,0,0,0,0,0,0,0,0,0,0,-0.0097,-0.0098,-0.0122,-0.0122,-0.0122,-0.0159,-0.016,-0.0161,-0.0229,-0.023,-0.0231,-0.0232,-0.034,-0.0343,-0.0345,0,0,0,0,0,0,0,0,0,0,0,0,0,-0.0124,-0.0098,-0.0122,-0.0156,-0.0159,-0.0158,-0.016,-0.0161,-0.0229,-0.023,-0.0231,-0.0232,-0.0339,-0.0342,-0.0346,-0.034,0,0,-0.0355,-0.0357,0,0,0,0,0,0,0,0,-0.0122,-0.0125,-0.0151,-0.0154,-0.0157,-0.0186,-0.0191,-0.0223,-0.0228,-0.0208,-0.0231,-0.0233,-0.0291,-0.0298,-0.0309,-0.0346,-0.035,-0.0356,-0.0358,-0.0359,-0.036,0,0,0,0,0,0,0,-0.012,-0.0124,-0.0142,-0.0151,-0.0154,-0.0165,-0.0171,-0.0197,-0.0248,-0.021,-0.0214,-0.0209,-0.0294,-0.0306,-0.0312,-0.0352,-0.0356,-0.0358,-0.036,-0.0362,-0.0465,-0.0466,0,0,0,0,0,0,-0.0104,-0.0122,-0.0141,-0.0142,-0.0136,-0.0164,-0.0171,-0.018,-0.0246,-0.0255,-0.0208,-0.0212,-0.03,-0.0309,-0.0317,-0.0389,-0.0359,-0.0362,-0.0364,-0.0464,-0.0465,-0.0466,0,0,0,0,0,0,-0.0104,-0.0106,-0.0139,-0.0128,-0.0132,-0.0163,-0.0172,-0.018,-0.0209,-0.0242,-0.0255,-0.0231,-0.0301,-0.0312,-0.0365,-0.0391,-0.0363,-0.0366,-0.0463,-0.0464,-0.0466,-0.0487,0,0,0,0,0,0,-0.0103,-0.0106,-0.0112,-0.0127,-0.0132,-0.0155,-0.0171,-0.0179,-0.02,-0.0207,-0.0266,-0.0276,-0.0303,-0.036,-0.0368,-0.0395,-0.0369,-0.0462,-0.0464,-0.0465,-0.0485,-0.0488,-0.0491,0,0,0,0,0,-0.0102,-0.0106,-0.0113,-0.0115,-0.0139,-0.0154,-0.016,-0.0188,-0.02,-0.0219,-0.0261,-0.0275,-0.0375,-0.0363,-0.0372,-0.0401,-0.0461,-0.0463,-0.0465,-0.0483,-0.0488,-0.0491,0,0,0,0,0,0,-0.0104,-0.0113,-0.0121,-0.013,-0.0146,-0.0165,-0.0175,-0.0191,-0.0237,-0.0248,-0.0286,-0.03,-0.0359,-0.0371,-0.0356,-0.0434,-0.042,-0.0424,-0.0431,-0.0435,-0.0438,-0.043,-0.0371,0,0,0,0,0,-0.0102,-0.0109,-0.0121,-0.0129,-0.0135,-0.0156,-0.0166,-0.0186,-0.0218,-0.024,-0.0279,-0.0322,-0.0368,-0.0395,-0.0433,-0.047,-0.0469,-0.0494,-0.0497,-0.05,-0.0499,-0.0535,-0.0541,-0.0472,-0.0472,-0.0472,0,0,-0.0102,-0.0108,-0.0112,-0.0129,-0.0142,-0.0153,-0.0168,-0.0187,-0.0203,-0.0244,-0.0289,-0.0337,-0.0381,-0.0435,-0.046,-0.0451,-0.0513,-0.0502,-0.0504,-0.0502,-0.0537,-0.0544,-0.055,-0.0473,-0.0473,-0.0473,0,0,-0.0101,-0.0114,-0.0118,-0.0127,-0.0141,-0.0157,-0.0163,-0.0192,-0.0217,-0.0257,-0.0299,-0.036,-0.0416,-0.0462,-0.0489,-0.0527,-0.0531,-0.0543,-0.0554,-0.0589,-0.0595,-0.0601,-0.058,-0.0583,-0.0543,-0.0543,-0.0543,0,-0.0102,-0.0109,-0.0122,-0.0125,-0.0132,-0.0158,-0.0167,-0.0189,-0.0235,-0.026,-0.0275,-0.0386,-0.0427,-0.0499,-0.0524,-0.0536,-0.054,-0.0538,-0.0594,-0.0599,-0.0604,-0.0582,-0.0585,-0.0544,-0.0544,-0.0544,-0.0544,0,-0.0099,-0.0107,-0.0109,-0.0123,-0.0136,-0.0149,-0.0171,-0.0199,-0.0231,-0.0261,-0.0339,-0.0403,-0.0471,-0.0499,-0.0529,-0.0595,-0.0578,-0.0595,-0.0582,-0.0612,-0.0586,-0.059,-0.0546,-0.0545,-0.0545,-0.0545,0,0,-0.0103,-0.0107,-0.011,-0.0112,-0.0138,-0.0147,-0.0173,-0.0212,-0.0233,-0.0296,-0.0339,-0.0439,-0.0484,-0.0518,-0.0569,-0.0608,-0.0646,-0.0623,-0.0624,-0.0598,-0.069,-0.0661,-0.0661,-0.0684,-0.0685,-0.0687,-0.0647,0,-0.0103,-0.0101,-0.011,-0.0119,-0.0123,-0.0149,-0.017,-0.0208,-0.0249,-0.0297,-0.0375,-0.0442,-0.0486,-0.0535,-0.0583,-0.064,-0.0661,-0.0652,-0.0668,-0.0667,-0.0637,-0.0667,-0.0691,-0.0649,-0.065,-0.065,-0.0651,0,-0.0104,-0.0102,-0.0106,-0.0114,-0.0119,-0.0132,-0.0172,-0.0194,-0.026,-0.0296,-0.0376,-0.0436,-0.0523,-0.055,-0.064,-0.0637,-0.0664,-0.0693,-0.0692,-0.0663,-0.0646,-0.0621,-0.0656,-0.0656,-0.0655,-0.0655,-0.0655,0,-0.0101,-0.0103,-0.0106,-0.0108,-0.0122,-0.0136,-0.0154,-0.0204,-0.0219,-0.0305,-0.0328,-0.0439,-0.0487,-0.0561,-0.0633,-0.0644,-0.0704,-0.0718,-0.0703,-0.0698,-0.0723,-0.0719,-0.0765,-0.0765,-0.0765,-0.0765,-0.0765,0,-0.0099,-0.0102,-0.0102,-0.0103,-0.0108,-0.0127,-0.0147,-0.0178,-0.0221,-0.0237,-0.0333,-0.0364,-0.0499,-0.0552,-0.0618,-0.0665,-0.0688,-0.0703,-0.07,-0.0728,-0.0724,-0.0723,-0.0719,-0.0764,-0.0764,-0.0764,-0.0764,0,-0.01,-0.01,-0.0098,-0.0105,-0.0106,-0.0114,-0.0123,-0.0133,-0.0175,-0.0195,-0.0224,-0.031,-0.0387,-0.0485,-0.0588,-0.0624,-0.0685,-0.0689,-0.0673,-0.0669,-0.0648,-0.0645,-0.0661,-0.066,-0.0659,-0.0658,-0.0658,0,-0.01,-0.01,-0.0094,-0.0084,-0.0087,-0.0092,-0.0091,-0.012,-0.0122,-0.0154,-0.0159,-0.0236,-0.0301,-0.0392,-0.0519,-0.062,-0.0641,-0.0647,-0.0692,-0.0649,-0.0644,-0.0643,-0.0641,-0.0656,-0.0656,-0.0656,-0.0656,0,-0.0101,-0.0101,-0.0094,-0.007,-0.0062,-0.0048,-0.0046,-0.0035,-0.0058,-0.0086,-0.0094,-0.0167,-0.0236,-0.036,-0.0441,-0.0522,-0.0643,-0.0639,-0.0641,-0.0684,-0.0643,-0.0639,-0.0639,-0.0653,-0.0653,-0.0653,-0.0653,0,-0.0102,-0.0093,-0.0076,-0.0053,-0.0034,-0.0007,-0.0009,0.0004,0.0003,-0.0022,-0.0021,-0.0114,-0.0183,-0.0305,-0.0386,-0.0467,-0.0491,-0.0506,-0.0516,-0.0521,-0.0516,-0.0446,-0.0393,0,0,0,0,0,-0.0099,-0.0079,-0.0057,-0.0025,-0.0001,0.001,0.0025,0.0023,0.0016,0.0029,0.0009,-0.0056,-0.0177,-0.0245,-0.0317,-0.039,-0.0522,-0.0477,-0.0548,-0.0636,-0.064,-0.0659,0,0,0,0,0,0,-0.0093,-0.0072,-0.0053,-0.0002,0.0026,0.0051,0.0063,0.0058,0.0063,0.0048,-0.0018,-0.0055,-0.0186,-0.0129,-0.0311,-0.0341,-0.039,-0.0546,-0.0546,-0.0634,-0.0637,-0.064,-0.0661,0,0,0,0,0]}]]